Home > Weather > Accra > Past weeks

Flag for Ghana Past Weather in Accra, Ghana — Yesterday and Last 2 Weeks

Now
77 °F

Mostly cloudy.


Feels Like: 78 °F
Forecast: 76 / 83 °F
Wind: 7 mph from Southwest

Location: Accra Airport

Current Time: Jun 28, 2016 at 7:52:31 AM

Latest Report: Jun 28, 2016 at 5:00 AM


Visibility: N/A

Pressure: 29.98 "Hg

Humidity: 89%

Dew Point: 73 °F

Location of AccraLocation

Past Weather in Accra — Graph

°F

Accra Temperature Yesterday

Maximum temperature yesterday: 84 °F (at 11:00 AM)
Minimum temperature yesterday: 75 °F (at 6:00 AM)
Average temperature yesterday: 79 °F

High & Low Weather Summary for the Past Weeks

 TemperatureHumidityPressure
High86 °F (Jun 18, 12:51 PM)100% (Jun 13, 5:00 AM)30.09 "Hg (Jun 13, 5:00 AM)
Low73 °F (Jun 13, 5:00 AM)66% (Jun 27, 1:00 PM)29.89 "Hg (Jun 19, 5:00 PM)
Average79 °F87%29.97 "Hg
* Reported Jun 13 5:00 AM — Jun 28 5:00 AM, Accra, Weather by CustomWeather, © 2016

Note: Actual official high and low records may vary slightly from our data, if they occured in-between our weather recording intervals... More about our weather records

Advertising

Accra Weather History for the Previous 24 Hours

Scroll right to see more
 ConditionsComfort  
Time TempWeatherWind HumidityBarometerVisibility
5:00 AM
Tue, Jun 28
77 °FMostly cloudy.7 mph89%29.98 "HgN/A
4:00 AM77 °FPassing clouds.6 mph89%29.98 "HgN/A
3:00 AM77 °FPassing clouds.7 mph89%29.95 "HgN/A
2:00 AM77 °FPassing clouds.9 mph89%29.98 "HgN/A
1:00 AM77 °FClear.9 mph89%29.98 "Hg10 mi
12:00 AM77 °FPassing clouds.10 mph89%30.01 "HgN/A
11:00 PM
Mon, Jun 27
77 °FPassing clouds.12 mph89%30.01 "HgN/A
10:00 PM79 °FPassing clouds.13 mph84%30.01 "HgN/A
9:00 PM77 °FPassing clouds.16 mph89%29.98 "HgN/A
7:00 PM79 °FPartly cloudy.16 mph84%29.95 "HgN/A
6:00 PM79 °FScattered clouds.18 mph84%29.95 "HgN/A
5:00 PM79 °FMostly cloudy.18 mph84%29.92 "HgN/A
4:00 PM81 °FPassing clouds.22 mph74%29.92 "HgN/A
3:00 PM82 °FPassing clouds.23 mph70%29.92 "HgN/A
2:00 PM82 °FScattered clouds.22 mph70%29.95 "HgN/A
1:00 PM84 °FScattered clouds.17 mph66%29.95 "HgN/A
12:00 PM84 °FPartly sunny.13 mph70%29.98 "HgN/A
11:00 AM84 °FPartly sunny.12 mph70%29.98 "HgN/A
10:00 AM82 °FPassing clouds.12 mph70%29.98 "HgN/A
9:00 AM81 °FPartly sunny.14 mph79%29.98 "HgN/A
8:00 AM77 °FScattered clouds.10 mph89%29.98 "HgN/A
7:00 AM77 °FPassing clouds.10 mph89%29.98 "Hg5 mi
Weather by CustomWeather, © 2016

See weather overviewHow to use our weather pages